User: anonymous   Login
Location: Mentone
(34.5413°N, 85.5351°W)
Time: 02:34:04
(UTC-05:00)
Language:

A-11 Canister half - Orbit

View from above orbital plane
View from above orbital plane
View from above satellite
View from above satellite

Ground track
Ground track

The orbit data is extracted from the following two-line orbital elements,

1 00053U 60009E   15145.54775638 -.00000085  00000-0  00000+0 0  9997
2 00053 047.2747 203.4161 0096683 014.3210 346.0288 12.17166774443241
Epoch (UTC): 25 May 2015 13:08:46
Eccentricity: 0.0096683
inclination: 47.2747°
perigee height: 1528 km
apogee height: 1682 km
right ascension of ascending node: 203.4161°
argument of perigee: 14.3210°
revolutions per day: 12.17166774
mean anomaly at epoch: 346.0288°
orbit number at epoch: 44324

The dashed part of the orbit path shows where the satellite is in the earth's shadow,  

DLR